Simultaneous Nadir Overpasses (SNOs) Predictions

Prediction of SNOs over PacNW region [( 10.00, 139.50) to ( 22.70, 165.60)] between AQUA and NPP Satellites:

Table of predicted SNOs over PacNW region for the next 30.0 days since TLE Epoch: 1/28/2023
Index Date (AQUA) Time (AQUA) AQUA Lat,Lon Date (NPP) Time (NPP) NPP Lat,Lon Distance(km) Time Diff (sec)
1 01/28/2023 15:06:36 22.00, 162.77 01/28/2023 15:06:25 22.75, 158.74 422.61 11
2 01/31/2023 03:26:58 22.67, 150.89 01/31/2023 03:23:29 25.89, 146.53 568.66 209
3 02/08/2023 02:33:16 22.67, 164.37 02/08/2023 02:31:49 22.58, 160.08 440.61 87
4 02/08/2023 04:11:12 19.36, 140.44 02/08/2023 04:12:07 18.36, 135.75 506.57 55
5 02/10/2023 16:10:55 10.05, 144.92 02/10/2023 16:07:26 9.12, 141.25 415.18 209
6 02/18/2023 15:14:22 19.54, 160.59 02/18/2023 15:13:30 20.32, 156.60 426.48 52
